Theta_e
351 349 342 339 336 335 333 331 330 329 330 332 334 335 336 336 336 335 334 334 333 333 332 331 330 329 329 328 326 324 322 320 321 321 319 316 315 315 315 315 316 318 318 323 326 319 316 315 312 313 311 313 314 316 316 315 314 312 311 310 309 309 309 311 313 314 312 311 311 309 311 319 325 322 316 315 317 323 326 325 325 325 326 326 325
350 348 343 338 337 335 333 331 330 330 329 331 333 334 336 336 336 335 335 334 333 333 332 331 330 329 328 328 327 325 323 320 319 322 324 322 320 318 318 319 321 322 319 322 326 320 316 315 313 312 311 312 313 315 317 318 318 313 312 311 309 310 313 318 321 322 321 319 317 313 312 316 322 323 316 310 315 323 325 325 325 325 325 326 327
349 346 341 338 337 335 333 332 330 330 329 330 333 334 336 336 336 335 335 334 333 333 333 332 330 329 329 329 328 326 323 320 319 321 327 330 329 326 325 326 327 327 325 320 319 318 317 317 314 312 311 311 312 314 315 321 322 316 313 310 311 318 323 326 328 329 329 328 326 322 316 312 320 328 323 312 316 323 325 325 325 325 326 326 327
349 345 339 337 337 335 333 332 331 330 329 330 333 335 335 336 336 335 335 334 334 333 332 331 330 330 330 330 328 324 321 319 319 321 325 330 333 332 330 329 324 324 329 327 322 317 317 317 316 314 311 311 311 313 313 317 318 315 313 312 315 324 329 331 333 333 333 332 331 330 324 315 316 326 325 316 315 321 324 323 324 325 326 326 326
349 345 338 337 336 335 334 332 331 329 328 329 332 334 335 336 336 335 335 334 334 333 333 331 330 330 330 329 325 320 318 318 320 321 323 327 330 331 329 324 320 323 328 330 327 317 316 317 316 315 311 311 311 312 311 312 313 313 312 313 319 327 332 333 335 334 335 334 334 333 331 322 313 321 326 320 314 317 324 323 323 324 325 326 326
349 344 336 336 335 335 334 332 330 328 327 328 331 333 335 336 336 335 334 335 334 333 332 331 330 330 329 324 320 317 318 319 322 323 325 325 326 326 324 320 319 327 329 327 325 319 321 318 315 317 312 311 311 312 312 311 311 311 311 313 321 329 333 334 335 335 336 335 334 334 332 329 317 320 328 326 318 313 320 323 324 325 325 325 326
348 342 336 336 336 335 334 332 330 327 326 326 330 333 335 335 335 335 334 334 334 333 332 329 329 328 324 319 318 317 317 319 322 324 325 324 324 322 320 319 317 327 332 329 328 326 329 325 317 317 314 311 310 311 311 312 311 311 311 316 324 329 333 333 334 334 335 335 335 334 333 333 320 319 327 328 322 310 312 320 324 324 324 325 325
347 340 335 336 336 335 334 332 329 326 325 325 328 332 334 335 335 335 334 334 334 333 330 327 326 323 321 319 320 320 319 320 322 324 324 321 320 320 318 317 315 322 331 333 332 330 332 329 322 317 315 312 309 311 311 312 311 311 312 318 326 331 335 335 335 335 334 335 335 335 334 331 318 314 324 328 324 312 309 315 320 321 322 323 323
344 337 335 336 336 335 334 332 330 327 325 324 327 331 333 334 334 334 334 333 333 330 326 324 323 322 323 322 323 323 324 324 324 324 323 321 320 319 317 316 316 318 325 329 331 331 332 330 326 319 316 314 309 311 311 312 312 311 313 319 327 333 336 335 335 335 335 336 335 335 331 325 318 311 318 326 322 313 309 310 313 317 321 322 321
341 337 336 337 336 336 334 333 331 327 325 324 326 329 332 333 332 332 330 330 328 326 323 324 325 325 325 325 325 327 328 329 328 328 327 326 323 321 318 316 316 316 320 323 324 327 331 331 327 320 317 315 310 310 310 312 313 313 314 318 327 333 335 334 333 332 332 333 333 335 330 325 323 312 311 319 317 312 310 309 309 317 322 323 322
341 340 337 337 336 336 335 334 332 329 326 325 326 328 329 330 329 328 326 325 324 323 325 327 328 327 326 326 327 327 330 332 332 333 332 330 328 326 323 320 319 319 319 320 319 320 325 329 328 322 317 316 312 311 311 312 313 314 314 317 326 333 335 334 333 332 332 332 332 333 329 323 318 311 310 312 312 311 310 309 309 315 319 320 320
344 344 339 337 336 336 336 334 333 330 327 326 326 326 326 327 325 324 323 323 324 326 328 329 329 327 328 328 328 329 331 333 333 335 336 334 333 331 328 326 326 325 323 322 320 318 319 322 325 322 317 315 312 310 312 312 314 315 315 318 327 334 335 334 333 333 333 333 333 332 329 320 313 315 320 316 310 310 310 310 309 311 311 311 315
345 345 340 336 336 336 335 335 334 332 329 328 327 326 326 325 324 323 324 326 328 329 330 329 329 329 330 330 331 331 331 333 334 335 336 336 335 333 331 330 330 329 328 327 325 322 319 319 321 321 317 314 313 312 312 313 314 316 316 319 327 334 334 335 334 333 333 333 331 331 326 316 313 317 321 318 309 309 310 310 310 309 309 307 310
346 345 339 336 336 335 336 335 335 333 332 331 329 328 326 325 324 326 328 329 330 330 330 330 331 331 332 332 332 332 332 334 334 335 335 336 336 335 333 332 331 330 330 329 330 329 325 320 317 316 316 315 314 313 313 313 314 316 318 319 326 333 334 335 334 333 333 334 333 331 325 313 313 317 314 311 307 309 310 309 310 309 309 309 308
346 343 338 336 336 334 335 335 335 334 334 332 330 329 327 327 327 328 329 330 330 330 332 331 332 333 332 332 331 332 332 332 334 334 334 335 336 335 334 333 332 331 330 330 331 331 329 325 319 315 315 315 313 315 314 314 314 316 319 320 327 333 334 334 334 334 333 334 334 333 328 314 314 319 315 309 307 309 309 308 309 310 310 309 309
346 343 338 336 336 334 335 335 336 335 334 333 331 330 329 329 329 329 329 330 331 331 332 332 333 333 332 331 330 329 329 330 332 333 333 335 334 333 333 334 333 331 330 329 330 331 329 328 324 316 314 314 313 314 315 315 314 317 319 321 327 333 334 334 333 334 333 334 332 330 326 314 312 318 316 310 307 308 308 309 308 308 309 309 309
346 344 339 336 335 335 335 336 336 335 335 334 332 332 331 330 330 330 330 331 331 332 332 332 333 332 330 329 326 325 326 328 330 331 332 333 332 332 332 333 332 331 330 329 328 328 327 328 326 320 315 314 314 314 314 315 315 317 320 322 328 333 334 334 334 334 334 333 332 330 325 314 311 316 315 311 308 308 308 308 308 308 308 308 309
345 344 340 337 336 335 336 336 336 335 335 334 333 333 332 331 331 331 331 332 332 332 332 332 332 330 328 327 325 324 325 328 329 330 331 331 331 330 330 332 332 331 331 329 326 324 324 325 324 322 320 316 314 315 313 313 314 317 321 323 328 332 332 332 333 333 333 333 332 332 329 318 311 314 314 312 309 309 308 308 308 308 307 308 308
344 344 342 339 337 336 336 336 336 335 334 335 334 333 333 332 332 332 333 333 332 332 332 331 330 328 326 326 327 326 326 328 329 330 330 330 330 329 330 331 331 330 329 327 325 324 323 323 321 320 321 319 316 315 315 313 314 318 322 324 329 332 331 331 332 332 333 333 333 332 330 322 313 312 313 312 311 309 308 308 308 308 307 307 307
343 344 342 339 337 336 335 336 336 335 335 335 335 334 334 333 333 333 334 334 333 332 331 330 328 327 327 328 328 327 328 328 328 328 329 329 327 328 329 329 329 328 327 325 325 325 323 322 322 319 319 321 318 316 317 317 317 321 323 325 331 333 333 333 332 332 332 332 333 331 330 324 314 312 314 313 311 310 308 307 307 307 308 307 307
343 344 343 339 338 337 335 336 335 335 336 336 335 335 334 333 334 334 334 333 332 331 330 328 328 328 328 328 328 327 328 327 327 328 328 327 326 326 326 325 325 325 324 323 322 321 320 320 321 321 318 319 321 317 318 320 322 324 323 326 330 331 333 333 332 331 330 331 330 329 329 324 315 314 315 314 312 310 309 308 307 307 307 307 307
343 343 342 339 338 336 335 335 335 335 336 336 335 336 334 334 334 333 331 331 331 330 328 327 328 329 329 329 328 328 329 327 328 329 328 327 326 325 325 324 323 322 321 321 320 319 318 318 319 321 318 317 321 319 318 321 323 325 323 324 325 328 332 333 332 331 331 331 329 328 327 319 314 314 315 315 314 310 311 310 308 307 307 307 307
343 343 341 340 339 337 335 336 334 335 337 336 336 335 335 335 332 330 330 331 329 328 327 328 329 330 330 330 329 329 330 329 329 330 328 328 328 325 325 325 323 321 321 320 320 319 318 318 318 320 319 317 320 321 320 322 323 325 324 323 325 327 332 332 331 331 331 330 328 325 320 313 312 315 314 314 312 312 316 318 313 308 307 307 307
342 342 341 341 339 337 336 336 335 336 336 336 336 336 335 334 331 330 330 330 328 326 328 329 330 330 330 331 330 330 330 329 329 330 329 329 329 326 324 324 323 321 320 320 319 319 318 318 319 321 323 322 323 325 327 327 323 323 323 325 330 331 331 331 330 330 329 328 326 320 314 311 313 314 315 313 310 313 320 323 318 310 307 307 306
341 341 341 341 339 337 336 336 336 336 336 336 336 335 334 333 331 330 329 328 326 327 329 329 330 330 331 331 330 330 329 328 328 329 329 329 328 326 325 324 324 322 321 324 324 321 321 321 322 324 328 328 328 329 331 331 327 324 324 327 333 333 331 331 330 330 329 327 326 320 314 313 313 314 316 314 311 313 318 321 317 310 308 307 307
341 341 341 341 339 337 337 337 336 335 336 336 335 335 334 332 332 330 329 327 325 328 330 330 331 331 331 330 329 330 329 327 327 329 328 329 328 327 327 326 327 326 324 328 329 326 326 327 327 328 330 331 330 330 331 332 331 330 330 331 334 333 332 332 331 330 329 328 327 322 317 314 312 313 315 316 314 314 316 317 314 310 308 308 307
342 341 341 341 339 337 337 337 337 336 336 336 335 335 332 332 332 331 330 327 326 330 331 331 331 330 329 329 329 329 329 329 329 329 329 329 328 327 328 328 328 329 327 328 329 329 329 330 330 330 331 331 331 331 331 332 333 333 333 333 333 332 331 331 331 330 329 329 326 321 318 313 312 313 315 317 317 317 317 314 312 309 307 307 307
342 341 341 341 339 338 337 337 337 336 336 335 335 333 331 331 331 331 331 329 330 333 332 331 330 328 329 329 330 330 329 330 330 328 329 329 329 327 328 328 328 328 327 327 327 330 330 330 330 331 331 331 331 330 330 332 333 333 333 332 333 332 331 331 331 330 329 328 325 321 318 313 311 312 315 319 321 321 318 313 311 309 308 308 308
342 341 340 340 339 338 338 337 337 337 336 336 334 332 331 329 330 331 331 330 332 335 334 332 329 328 329 329 330 331 329 330 329 328 328 330 328 326 328 328 328 328 327 328 329 330 330 330 330 330 331 331 330 330 329 331 333 333 332 332 332 331 331 331 331 331 329 329 325 321 318 314 311 311 314 318 322 323 322 319 314 309 308 308 309
341 341 340 339 339 338 337 337 337 336 336 334 333 331 329 329 332 332 332 332 332 333 333 332 329 329 330 329 328 329 329 329 329 329 328 329 328 326 328 328 329 329 328 329 330 330 330 330 330 330 330 330 329 330 330 330 331 332 332 332 331 331 331 331 331 330 330 329 327 324 320 316 313 312 313 315 317 320 324 324 317 311 309 307 308
340 340 340 339 338 338 338 337 336 336 335 334 332 330 329 331 333 332 332 332 331 332 332 329 328 329 330 329 328 327 328 329 329 330 329 327 327 326 328 328 328 329 329 329 328 329 329 329 330 329 329 330 329 329 330 330 330 331 331 331 330 330 330 330 331 331 330 329 329 328 324 320 318 316 315 314 313 314 321 324 320 316 314 311 310
339 340 339 338 338 337 337 337 336 336 334 333 332 332 333 334 332 332 333 331 330 332 332 329 328 329 330 329 328 326 327 329 329 329 329 327 326 327 327 327 327 327 328 327 327 328 327 328 330 329 330 330 328 328 329 330 331 330 330 330 329 329 329 330 330 330 330 330 329 329 327 323 321 320 318 316 314 313 316 321 321 320 319 317 315
338 339 339 337 337 336 336 336 335 335 334 333 333 333 334 333 332 332 333 332 331 332 332 331 330 330 329 328 326 326 326 327 328 329 329 327 327 328 327 326 326 326 327 327 327 328 327 329 330 330 331 329 328 328 329 330 329 330 329 329 328 328 330 329 327 327 330 331 329 329 329 327 325 324 323 322 320 318 318 319 319 321 322 322 321
338 338 337 337 336 335 335 336 335 335 334 333 333 332 331 330 329 328 330 332 332 331 330 329 328 328 328 328 326 325 325 325 327 329 329 328 327 328 328 328 327 325 326 328 329 328 328 329 330 330 330 329 329 329 329 330 330 330 329 329 329 328 330 330 327 327 328 329 329 330 330 329 328 327 326 325 325 324 322 321 322 323 325 326 326
338 338 337 336 335 335 335 335 334 333 332 331 331 331 330 329 327 326 329 332 331 329 327 325 324 325 327 328 326 324 325 326 328 329 329 329 329 328 329 329 327 325 327 329 328 327 328 329 330 330 330 329 330 329 329 329 330 330 329 328 329 329 329 329 329 329 329 328 329 330 329 328 329 329 328 327 326 325 324 324 325 327 327 327 327
337 337 336 336 335 336 336 334 333 332 330 329 329 329 329 327 326 328 329 329 328 325 324 324 325 326 326 327 327 326 327 327 327 327 328 328 329 329 329 329 328 328 328 328 327 326 328 329 329 330 330 330 330 330 329 329 329 329 327 327 329 329 329 329 329 329 329 329 329 329 327 327 328 329 329 327 325 324 324 325 326 326 326 326 327
337 336 336 335 335 335 334 332 332 331 329 328 327 326 326 324 324 326 327 326 325 325 324 324 325 326 326 326 326 327 328 327 326 327 328 329 329 329 330 330 328 328 327 327 325 325 327 329 329 330 330 330 330 329 329 329 328 327 326 327 328 329 329 329 329 329 329 329 330 329 327 327 328 329 328 325 325 325 325 325 326 326 326 326 326
335 336 336 335 335 333 330 330 331 330 329 328 325 324 325 324 324 325 325 325 325 324 324 325 326 325 325 325 326 327 328 328 327 327 329 330 328 329 331 330 328 327 327 327 325 324 327 328 329 331 330 329 330 330 329 329 328 326 326 327 327 328 328 327 327 328 329 329 329 329 328 328 329 329 327 324 325 326 326 325 325 326 325 324 324
334 336 335 334 334 331 330 331 331 330 329 326 324 325 325 323 323 323 324 325 325 325 326 326 327 327 327 328 329 329 328 327 328 329 330 330 328 328 329 329 327 327 328 328 326 325 327 327 328 330 329 329 330 330 329 328 328 327 327 327 325 327 327 327 327 327 328 328 327 327 327 327 328 328 327 326 326 326 326 325 324 325 324 323 323
335 335 334 334 334 333 331 330 329 329 328 326 325 325 324 323 324 324 325 327 326 325 326 327 328 328 329 331 331 330 328 327 327 329 329 328 327 327 328 329 328 327 327 327 326 326 327 326 327 327 327 329 329 330 330 328 328 328 328 327 326 328 328 328 328 328 328 327 327 328 328 328 328 327 326 326 326 324 324 324 324 324 324 324 324
335 335 335 334 332 331 331 329 327 327 328 326 325 325 326 327 327 327 327 326 325 325 327 329 330 330 330 330 331 329 328 327 326 329 328 328 328 327 328 329 328 326 324 325 326 326 326 326 326 326 327 330 329 329 330 328 328 329 329 328 328 328 328 328 329 329 328 327 326 327 327 327 326 324 322 324 326 325 324 324 324 323 323 324 325
335 334 335 333 327 326 327 328 327 327 325 324 325 328 328 327 327 327 326 324 324 326 328 328 326 327 330 330 329 330 329 327 326 328 328 328 328 326 328 328 326 325 324 325 326 325 325 325 326 327 326 328 329 329 329 328 328 329 328 327 328 328 327 327 328 328 327 326 325 324 324 324 323 321 320 321 323 324 324 323 322 323 322 323 324
334 333 332 331 328 326 326 326 326 325 323 324 327 329 327 326 326 326 326 325 325 326 328 327 324 326 329 330 329 330 330 329 329 329 328 329 327 323 326 327 324 325 326 325 325 326 325 325 326 327 326 327 329 329 327 327 327 328 327 327 327 327 326 326 327 327 327 326 325 324 323 323 322 322 322 321 320 322 323 322 321 322 322 321 322
334 333 331 330 328 327 325 324 324 323 323 324 325 326 324 324 325 326 327 328 327 326 327 329 328 327 328 329 330 330 329 330 330 329 329 329 327 324 327 327 325 325 326 324 324 325 324 324 326 328 328 328 330 329 327 326 326 326 327 327 327 326 327 327 326 325 325 324 324 324 323 323 323 323 324 323 323 323 322 322 321 321 322 321 321
334 334 332 330 327 326 325 323 323 323 323 323 322 322 324 326 327 325 323 321 320 323 326 327 327 327 326 327 328 329 329 330 331 330 330 329 328 326 326 327 327 326 324 324 324 324 323 325 326 328 329 329 330 328 325 324 325 326 326 327 326 326 327 326 325 324 324 324 323 323 322 322 322 323 323 323 324 323 323 322 322 321 322 322 322
333 333 332 330 327 326 325 322 323 325 324 323 322 323 322 321 321 319 319 320 320 323 326 325 326 327 327 327 326 327 327 328 329 329 328 328 328 327 326 326 327 326 326 325 324 323 323 324 325 326 328 328 329 328 326 323 325 326 326 326 326 326 326 326 325 325 324 323 322 322 322 321 321 322 322 322 322 322 322 322 322 322 321 322 321
331 332 331 330 327 325 324 322 322 326 326 324 325 326 321 318 321 323 325 326 327 327 327 326 326 326 326 326 324 324 325 323 323 324 324 324 324 324 323 323 323 323 324 326 325 324 324 325 326 327 327 328 328 329 328 325 325 326 325 324 324 324 324 325 326 325 323 322 321 322 321 321 322 321 321 321 321 321 321 321 321 322 322 322 321
330 330 329 328 326 324 324 323 321 323 326 326 328 327 323 324 328 328 327 328 327 326 325 325 324 322 322 322 320 323 326 324 323 324 324 324 324 325 324 323 323 322 323 325 326 325 325 326 327 328 328 328 328 328 328 326 326 327 326 324 323 323 324 325 325 324 323 321 321 320 319 318 319 320 320 320 320 320 320 320 320 321 322 322 321
330 330 328 326 325 324 323 324 321 320 323 325 326 325 323 327 328 326 326 326 323 320 321 321 319 318 321 323 324 325 326 325 324 324 324 324 324 324 324 324 324 324 323 324 325 325 325 325 326 327 328 328 327 326 326 326 327 327 327 326 324 323 325 325 325 324 322 321 320 319 317 315 316 318 318 318 318 318 319 320 319 319 319 319 318
330 330 329 327 325 323 322 322 321 319 321 322 323 322 322 326 327 325 323 321 319 320 321 318 315 317 321 323 324 324 324 325 324 323 324 325 325 324 322 323 324 324 323 324 325 324 325 325 325 325 326 325 324 323 324 325 327 328 327 326 325 324 325 325 324 323 321 321 320 319 318 315 315 317 317 316 316 316 317 318 318 317 316 317 316
329 328 328 327 325 323 322 322 321 320 320 320 320 321 322 326 326 323 320 318 320 323 321 317 316 318 320 321 322 323 324 324 323 323 324 324 324 324 323 322 323 324 324 324 323 323 324 325 324 322 321 321 322 322 323 325 326 327 326 325 325 324 323 323 321 321 321 320 319 319 319 315 313 315 316 315 314 315 315 316 316 316 314 315 314
Wind_Speed
16 14 17 19 20 20 19 19 19 18 19 19 19 18 17 17 17 16 16 16 15 14 14 13 13 13 13 13 12 12 11 11 11 12 13 13 13 12 11 10 9 8 6 7 8 8 8 10 11 11 12 12 12 13 13 13 14 15 16 18 19 20 20 20 21 20 19 18 18 16 16 16 17 17 17 17 14 15 16 16 16 17 19 18 16
17 16 18 20 20 20 19 19 18 18 18 19 19 18 18 18 17 17 17 16 15 14 13 13 12 12 12 12 12 11 10 9 9 10 11 12 12 11 10 9 8 7 5 6 7 7 7 9 10 10 11 11 11 12 12 13 14 15 16 18 19 21 21 21 22 22 21 19 19 19 18 18 17 18 18 19 16 16 18 16 16 18 20 18 15
17 18 20 21 20 20 19 19 18 18 18 18 19 18 18 18 17 17 17 16 15 14 12 12 11 11 11 12 11 10 9 8 8 9 10 10 11 11 9 8 7 6 5 5 6 6 6 8 8 9 9 10 10 11 12 13 13 15 17 17 20 22 23 24 25 25 24 21 21 21 21 20 17 18 17 20 20 18 19 17 17 17 18 18 16
15 20 21 21 20 19 19 18 18 17 17 18 19 19 18 18 18 17 17 16 15 13 12 11 10 10 11 11 11 10 9 8 7 9 10 10 10 9 8 7 6 5 6 6 6 5 6 7 7 8 8 9 9 10 12 13 14 15 17 18 21 23 25 26 27 26 25 22 22 21 21 21 17 17 17 20 22 18 18 18 18 17 17 18 16
13 20 22 22 20 19 19 18 18 17 17 18 19 19 19 18 18 17 16 15 14 13 12 10 10 10 10 10 10 10 9 9 8 9 10 10 9 8 6 5 5 6 7 7 6 5 5 6 7 7 8 8 8 9 10 12 13 16 17 19 22 24 26 26 27 25 25 21 20 17 17 20 18 16 17 19 21 19 17 19 19 18 17 16 16
13 21 24 23 21 20 20 18 18 17 18 18 19 19 19 19 18 17 16 15 14 13 11 10 9 9 9 9 9 9 9 10 10 10 10 11 9 8 5 4 5 6 6 6 6 5 6 6 7 7 7 8 7 7 8 10 12 15 16 19 21 23 26 26 26 24 23 21 19 13 10 16 16 14 16 16 18 20 18 18 18 16 14 13 14
13 23 25 23 22 20 20 19 18 17 18 18 19 19 19 19 17 17 16 15 13 12 11 10 9 9 9 9 10 9 9 10 11 11 10 11 10 8 6 5 5 6 6 5 5 6 6 6 7 8 7 7 7 6 7 9 11 14 16 18 20 23 26 26 26 23 22 21 18 10 7 14 14 12 14 14 16 20 18 17 17 15 14 13 13
15 26 25 24 22 21 20 19 18 17 18 18 18 19 19 18 17 17 15 14 13 12 11 10 10 10 10 10 10 10 9 10 11 11 10 11 11 10 8 7 5 6 6 5 6 6 6 6 7 8 8 7 7 6 6 8 11 14 16 19 22 24 25 23 22 22 21 19 14 5 7 10 11 12 14 14 15 18 19 18 16 15 14 14 13
20 27 25 24 22 21 20 18 18 17 17 17 18 19 18 18 17 16 15 14 13 12 11 11 12 11 12 11 10 10 10 10 11 11 10 10 10 11 9 9 8 6 7 6 7 6 6 5 6 9 9 8 7 7 6 8 11 13 15 19 22 24 24 22 20 20 21 14 6 1 4 8 11 11 13 14 14 17 18 18 17 15 15 15 14
24 27 25 23 22 20 19 18 17 16 17 17 18 18 18 17 17 16 15 14 13 13 13 13 14 13 13 11 10 9 10 10 11 10 9 9 10 10 9 9 9 8 7 6 6 7 7 6 6 8 10 9 8 8 6 7 10 12 14 17 20 23 23 22 20 20 18 11 3 2 2 7 10 8 11 13 14 15 16 18 18 16 17 16 15
23 22 23 23 21 20 19 18 17 17 17 18 18 18 18 18 17 17 15 15 14 14 14 15 15 14 13 12 10 9 9 10 10 10 9 10 10 10 9 8 8 8 8 6 5 5 6 6 7 8 11 10 9 9 7 7 8 10 13 15 19 22 23 21 22 22 15 8 4 3 2 7 6 8 11 12 13 14 15 17 18 18 17 17 16
21 17 21 23 21 20 19 18 17 17 18 18 19 19 19 19 18 18 17 16 15 16 15 15 15 14 13 12 11 9 8 9 9 10 10 11 10 9 9 8 7 7 7 6 6 5 4 5 6 7 11 12 10 10 8 8 8 9 11 15 19 22 22 20 21 20 11 5 1 2 4 7 5 10 11 12 13 14 15 16 17 18 18 18 17
22 16 20 24 21 21 19 18 18 18 19 19 19 19 19 19 19 18 18 17 16 16 16 15 15 13 12 11 10 10 9 9 8 8 10 10 9 9 8 8 7 6 6 6 6 5 4 3 4 7 10 12 11 11 10 9 8 9 11 15 18 20 21 19 20 16 10 4 4 4 5 7 6 10 11 12 13 14 14 14 16 17 18 18 18
21 18 22 24 22 22 20 19 19 19 19 19 19 19 20 20 20 19 19 18 17 16 16 15 14 12 11 10 10 10 9 9 8 8 9 9 8 8 7 7 6 5 4 5 5 4 3 3 3 6 9 12 12 12 12 10 9 9 11 14 17 19 20 19 19 15 8 4 5 3 5 7 5 9 10 10 12 13 13 13 14 15 16 17 18
18 19 24 24 23 23 21 20 20 20 20 20 20 21 21 21 20 20 19 18 17 16 15 14 13 11 11 10 9 10 9 8 8 7 7 8 7 7 7 5 4 4 3 3 4 4 3 1 1 4 7 11 12 12 12 11 10 9 11 13 15 18 18 18 18 13 4 4 5 5 5 6 4 7 9 10 12 12 12 13 13 13 14 15 16
16 18 22 24 24 24 23 21 20 20 20 20 21 21 21 21 20 19 18 17 16 15 14 13 13 11 10 9 8 9 8 7 7 6 7 8 7 6 6 5 3 2 2 2 2 3 2 1 1 2 4 8 11 12 12 11 10 9 10 12 14 17 18 16 17 13 4 5 7 6 5 4 3 5 7 9 10 11 12 12 12 12 12 13 14
15 17 22 24 24 24 23 22 21 21 21 21 21 21 20 20 20 19 18 17 15 14 13 13 12 11 9 8 8 8 8 7 6 6 6 7 7 5 4 4 3 2 2 1 1 1 1 2 1 2 3 6 9 11 11 10 10 9 9 12 15 17 17 16 16 13 7 6 8 4 5 5 3 4 6 8 9 9 11 11 11 11 11 11 12
15 18 21 24 24 24 24 23 23 24 23 22 21 20 20 19 19 18 18 17 15 14 13 12 12 11 10 9 9 8 8 7 6 6 6 6 5 5 5 4 4 3 2 0 0 0 1 1 1 3 4 4 7 9 10 10 9 9 9 13 15 15 14 14 15 10 8 8 8 5 6 7 5 3 5 6 7 8 9 10 10 10 10 10 10
17 19 21 23 25 26 25 25 25 26 25 23 22 21 19 18 18 17 17 16 15 14 13 12 12 11 11 10 10 9 8 7 7 6 6 5 5 5 5 4 4 3 2 1 1 1 0 1 1 2 3 4 5 7 8 9 9 9 10 14 16 15 13 13 14 7 9 8 7 6 6 8 6 1 4 5 6 6 8 9 9 9 9 9 10
17 20 22 24 24 26 26 26 28 28 26 23 21 21 19 18 17 16 16 16 15 14 14 13 13 12 12 11 10 9 8 8 7 7 6 5 5 5 5 4 4 2 2 2 1 1 1 1 1 2 3 4 4 6 7 8 10 11 12 17 17 16 14 13 10 7 8 6 6 5 5 7 8 2 3 4 5 5 7 8 8 8 8 8 9
19 21 23 26 25 26 27 28 29 28 25 22 21 21 21 20 18 16 15 15 15 14 14 14 14 13 13 12 11 10 9 8 7 7 6 5 4 5 5 4 3 3 2 2 2 2 2 1 1 2 4 5 6 6 7 8 11 12 13 16 16 14 14 11 7 7 8 5 5 5 6 8 8 4 0 2 4 5 6 7 7 7 7 7 7
20 22 24 26 25 26 28 28 29 28 24 22 23 23 22 21 18 17 15 15 16 15 15 15 15 15 14 12 11 10 9 8 7 7 7 5 5 5 4 4 4 4 3 2 3 3 2 2 2 3 5 7 8 7 8 8 10 12 12 14 12 11 13 10 6 6 8 6 5 6 7 8 7 4 1 1 3 4 5 5 6 6 6 6 6
20 23 23 24 24 27 28 28 29 27 24 23 24 23 22 21 19 18 17 16 17 16 16 16 16 15 13 12 9 8 8 8 7 7 7 6 5 5 4 4 3 3 3 3 3 3 3 3 3 3 5 8 10 10 8 7 9 10 10 11 9 9 12 9 6 8 9 6 5 5 6 7 6 4 2 1 1 3 4 4 5 6 5 5 5
20 22 20 22 25 28 28 28 29 27 24 24 24 24 22 21 20 19 18 17 17 16 17 17 16 14 12 11 9 8 8 8 7 7 6 6 6 5 4 4 3 2 2 3 3 3 4 4 5 6 7 9 10 10 7 5 8 9 10 9 6 8 11 7 7 9 8 4 3 5 7 7 6 4 2 2 1 2 3 3 4 5 5 4 4
16 18 19 23 27 30 30 28 28 27 26 25 24 25 24 21 19 19 18 18 19 18 17 17 15 13 11 11 9 9 9 8 8 7 6 6 6 5 4 3 2 2 2 2 3 4 5 5 6 8 9 10 10 10 6 8 8 8 9 7 6 8 8 7 9 9 8 5 3 5 7 7 7 5 4 2 2 2 3 2 3 3 4 4 3
14 15 19 24 28 31 31 29 28 28 27 26 27 27 25 22 20 19 18 18 19 18 17 15 13 12 11 10 9 9 8 8 8 7 6 6 6 5 5 4 3 3 2 3 2 3 5 5 6 7 8 8 8 8 9 10 9 8 7 7 8 10 8 8 9 9 7 6 5 4 6 7 6 6 5 3 2 3 3 1 2 3 3 3 3
13 14 16 22 27 29 30 29 29 29 27 27 28 27 24 22 20 19 18 18 18 17 17 15 13 13 10 8 9 9 8 7 7 7 6 6 6 6 6 5 5 4 4 4 3 2 4 5 7 7 6 6 5 7 9 9 9 9 7 7 8 10 9 9 9 8 5 4 4 3 4 5 4 5 6 4 2 2 3 2 3 3 4 4 3
12 13 14 18 23 26 28 30 29 29 28 28 28 26 24 22 21 20 18 19 19 17 17 17 14 11 10 9 9 8 8 7 8 7 6 6 6 7 6 6 6 6 6 5 4 4 4 5 6 7 6 5 6 8 8 8 10 9 7 7 8 8 11 10 8 7 5 4 3 2 3 3 3 3 4 3 1 1 3 4 5 4 4 4 3
12 14 15 15 19 22 26 29 28 28 28 28 27 25 24 22 21 20 18 19 19 15 13 15 13 10 10 10 8 8 8 8 8 8 8 8 7 7 7 7 8 8 8 7 5 6 6 5 6 5 5 7 8 8 9 9 9 9 9 9 10 10 10 9 6 4 4 3 2 2 3 3 3 3 3 2 1 2 2 3 4 5 4 5 4
13 14 14 14 16 19 24 27 26 27 28 27 26 25 23 22 21 20 18 17 14 12 10 10 10 9 10 11 8 7 7 8 7 8 8 7 8 7 7 8 9 10 9 8 6 7 7 8 8 6 7 9 8 8 10 9 8 9 11 10 10 10 8 8 7 5 3 1 2 3 3 4 4 4 3 2 1 3 4 3 4 6 7 6 6
12 11 11 11 13 17 21 24 24 26 28 27 24 23 23 21 19 17 14 14 11 10 10 8 8 9 10 10 8 6 7 8 7 9 8 6 7 6 6 7 10 10 9 9 9 9 9 10 11 8 8 9 8 8 8 8 8 9 11 10 9 9 8 7 8 7 4 1 2 2 3 4 5 4 4 3 3 3 5 5 5 8 9 8 7
11 10 10 10 12 15 17 19 22 26 26 24 21 20 20 16 14 12 10 11 9 10 11 9 9 10 10 8 7 6 7 8 8 8 7 6 7 5 4 6 10 11 10 9 9 11 11 12 11 10 10 10 9 9 10 10 10 9 9 9 8 8 9 9 9 8 4 2 1 0 2 4 5 5 4 4 4 4 6 7 7 7 7 8 8
11 9 10 12 12 12 14 16 19 22 22 19 16 14 13 10 8 8 6 7 8 9 9 8 9 9 8 8 8 8 7 8 8 7 7 7 6 6 6 8 10 10 10 10 9 10 11 13 11 10 11 12 11 10 12 13 11 8 7 7 7 7 8 8 9 7 4 2 2 1 1 2 3 4 5 4 4 4 5 5 6 6 6 6 8
11 10 11 13 13 12 12 14 16 16 15 14 13 11 11 9 8 9 6 6 8 8 8 6 6 6 7 8 7 7 7 7 7 7 8 7 6 7 8 9 10 10 10 11 11 10 9 11 10 11 12 13 13 12 14 14 11 9 7 6 6 7 7 6 6 6 4 3 3 2 1 1 1 2 4 6 5 4 4 4 5 5 6 6 7
12 11 12 14 17 15 12 13 15 14 11 11 11 11 12 10 10 11 7 6 6 6 6 6 6 6 6 7 7 6 7 7 7 8 8 7 8 9 9 9 10 10 11 12 12 10 8 10 9 9 12 13 12 13 13 12 10 8 8 9 8 9 9 8 6 6 4 2 2 2 2 2 1 2 3 5 5 4 5 4 5 6 6 6 5
12 12 15 16 16 15 14 13 14 13 11 11 10 10 10 8 10 10 7 6 5 4 5 6 6 7 8 8 8 7 7 8 9 8 7 8 10 10 9 10 12 11 11 12 13 11 9 10 8 5 9 12 11 11 10 9 9 9 9 10 9 9 10 10 7 6 5 3 2 2 3 3 3 3 2 2 1 2 4 4 5 5 5 6 5
13 14 17 16 14 15 15 13 12 12 11 11 10 10 9 7 9 8 6 4 3 4 4 4 5 7 8 8 8 7 7 8 8 6 7 10 12 11 10 11 11 10 10 11 11 11 11 10 8 7 7 10 10 8 8 8 9 10 9 8 8 9 9 8 7 5 6 4 2 2 2 3 4 4 1 0 3 2 1 2 2 3 4 5 5
15 16 19 18 15 16 15 12 11 12 11 11 10 9 8 6 7 6 4 2 3 4 3 3 4 5 6 7 7 6 5 7 7 6 8 10 12 13 12 10 8 9 9 10 11 12 12 10 8 10 7 8 10 9 8 8 8 10 10 9 7 8 8 6 5 5 5 4 2 1 1 1 3 2 1 2 3 3 3 3 2 1 2 3 4
17 18 19 18 16 15 14 12 12 13 12 12 10 8 6 5 5 4 3 2 2 2 1 2 2 2 3 5 5 4 5 7 7 7 8 9 11 11 10 7 6 9 10 10 13 13 11 10 9 10 8 7 10 10 9 8 8 9 10 9 7 6 6 6 5 4 3 3 3 1 1 0 1 1 2 2 2 3 3 3 4 3 3 4 4
19 20 19 17 16 15 15 14 13 13 11 10 10 8 7 6 6 6 6 6 5 4 4 6 5 3 2 3 4 3 4 5 6 6 7 8 10 10 7 6 7 10 11 10 12 13 10 9 9 9 9 8 8 9 9 8 8 9 9 8 7 5 5 5 3 3 5 5 5 2 1 3 2 3 3 1 1 3 3 2 3 3 3 3 4
19 20 19 17 15 14 16 15 14 14 11 9 9 9 10 8 8 8 8 7 6 5 3 3 3 3 2 1 2 2 3 4 5 6 6 7 9 8 6 7 9 10 10 9 11 12 10 10 10 9 10 8 7 8 9 9 8 8 8 8 9 7 6 6 4 5 6 5 5 3 3 4 6 5 4 4 3 2 3 3 3 2 2 3 3
19 20 18 17 16 15 16 15 15 15 12 10 11 11 10 9 10 10 9 6 5 3 2 3 2 1 1 2 1 1 1 2 4 5 7 7 8 8 7 8 9 7 9 9 10 11 10 10 10 9 10 9 8 9 10 10 10 10 9 9 10 8 6 6 6 6 6 5 5 6 6 6 6 7 5 5 4 4 3 1 1 1 3 3 2
20 20 18 18 19 18 16 15 16 15 14 13 13 12 10 10 11 9 5 3 5 5 2 1 1 1 3 2 2 2 2 2 3 3 5 6 5 6 6 7 7 6 8 9 9 10 10 9 9 8 10 9 9 10 11 11 11 10 10 9 9 8 6 6 6 7 8 8 6 7 10 8 8 8 6 5 5 4 2 3 2 1 2 2 1
21 20 20 20 20 18 17 17 15 14 15 16 14 13 11 11 10 6 6 9 10 8 4 4 3 3 2 2 3 2 2 3 3 4 4 5 4 4 5 6 7 7 8 8 8 9 9 9 9 9 10 10 10 10 11 12 10 10 11 9 7 7 7 6 7 8 8 9 7 6 9 10 8 8 8 9 8 6 5 6 5 3 4 3 1
22 21 21 21 21 19 18 17 16 15 17 17 14 12 11 10 9 9 10 9 7 7 4 4 4 3 3 3 3 3 3 4 3 3 4 4 3 3 4 5 7 7 7 8 8 9 9 9 9 9 9 9 10 9 9 10 9 10 11 8 6 6 7 8 9 9 9 7 5 6 8 8 9 8 9 11 11 9 8 10 10 7 5 5 3
22 21 21 22 21 20 19 19 19 18 17 16 15 13 11 10 10 10 8 6 6 6 4 4 3 3 3 4 3 3 4 4 4 4 4 4 3 2 2 3 5 5 6 7 8 8 8 9 8 8 9 9 9 9 8 9 9 10 10 8 6 6 8 11 10 9 10 8 7 10 11 10 11 10 8 8 10 9 8 9 10 7 5 4 3
22 23 23 23 22 21 20 20 21 20 17 17 16 14 12 12 10 8 8 8 8 8 6 5 5 5 4 2 2 4 4 2 4 5 5 4 3 2 2 3 3 2 5 6 7 7 6 7 7 7 7 7 8 8 7 7 10 11 10 9 8 5 7 12 11 11 12 9 8 11 12 11 13 12 8 7 10 12 9 8 9 7 7 5 2
23 25 26 24 23 23 20 21 23 22 19 19 18 16 16 15 11 9 9 9 10 10 10 8 6 5 5 4 5 6 5 3 4 6 5 4 4 4 3 3 2 3 1 3 4 5 4 4 6 7 6 6 7 7 6 6 7 9 9 9 8 5 9 12 10 11 12 10 8 6 7 8 9 11 10 10 13 14 10 7 8 7 6 3 2
23 25 26 25 24 23 22 22 24 24 22 20 20 18 16 15 13 13 13 12 10 9 8 8 7 6 6 7 5 5 5 4 5 6 5 3 3 5 7 8 6 2 2 3 4 6 7 7 8 7 6 6 5 5 7 7 5 6 8 10 9 7 11 11 8 11 12 12 10 6 8 10 12 13 13 13 14 13 11 9 9 6 3 3 5
22 23 24 25 25 23 22 23 24 25 23 21 19 16 15 15 14 13 13 12 11 9 7 6 6 6 6 7 7 4 3 4 5 6 5 3 3 4 7 11 13 10 7 6 5 8 10 8 7 6 6 6 5 5 7 8 6 5 8 11 10 10 12 10 8 11 12 12 11 8 10 12 13 14 13 12 12 11 10 10 8 2 1 3 5
23 22 23 24 24 23 23 22 22 24 23 20 18 17 17 17 15 13 13 13 12 10 8 5 5 5 5 6 6 4 4 4 5 6 6 4 5 6 5 6 10 10 9 6 5 6 7 6 4 4 4 4 4 5 6 8 8 6 8 9 9 10 11 10 10 11 11 11 10 10 11 10 12 13 12 10 10 11 10 8 5 0 3 1 4
Wind_Direction
162 167 163 161 154 145 142 137 137 137 136 137 140 144 145 147 145 143 139 133 127 122 117 111 107 105 104 99 95 94 92 92 95 107 116 121 123 124 122 120 116 113 116 116 114 117 119 114 108 101 91 85 86 92 98 97 91 87 82 80 81 78 74 72 69 66 61 58 58 57 62 66 64 64 68 64 70 82 72 70 71 79 83 77 84
160 167 164 164 155 147 142 137 139 137 139 140 143 148 149 150 148 147 142 138 132 126 122 115 112 109 108 104 101 99 96 92 93 103 111 117 120 121 122 117 112 110 116 120 112 109 113 113 107 101 92 87 87 89 95 94 90 86 80 76 76 75 73 71 68 64 59 57 52 48 52 57 60 64 65 59 65 76 72 76 75 78 84 82 86
152 164 163 162 155 147 142 138 139 137 140 142 148 152 152 152 152 151 146 142 135 131 128 120 116 114 113 112 110 107 104 101 102 110 113 115 117 120 123 121 120 118 120 127 120 114 117 118 111 103 95 90 88 84 86 89 90 86 81 78 77 77 75 71 66 60 55 50 45 40 40 41 54 65 59 52 59 71 70 73 76 77 85 87 89
146 163 161 160 154 147 141 138 138 138 141 145 153 155 156 155 155 154 150 145 139 137 132 125 121 119 118 118 117 114 113 113 117 121 124 126 123 124 127 128 132 128 124 121 123 129 129 128 120 113 103 96 93 84 79 81 84 83 82 82 82 80 76 72 67 64 59 50 40 32 24 29 46 63 61 52 53 63 67 70 75 78 84 88 90
150 161 161 158 151 147 141 138 138 139 145 151 156 158 159 158 159 157 152 147 144 142 136 129 124 123 121 119 119 118 120 123 128 127 130 135 134 134 132 134 134 128 127 124 129 138 139 139 133 128 117 107 101 89 82 80 80 81 83 86 87 82 76 72 69 67 66 60 52 37 8 14 32 54 62 53 51 58 64 68 69 74 81 89 92
159 160 160 156 150 146 141 139 138 142 149 155 158 161 162 160 163 158 154 151 148 145 138 132 126 126 121 118 118 117 123 128 133 130 131 135 139 142 133 129 127 123 122 122 135 142 137 145 147 145 131 119 113 101 89 83 80 82 84 88 88 83 78 73 69 66 67 64 62 61 356 357 16 45 63 55 53 55 61 67 67 71 75 83 91
159 161 159 155 150 146 142 140 139 145 151 156 159 161 164 164 164 158 156 153 151 147 140 135 131 129 122 118 117 117 122 127 134 132 131 131 134 135 127 117 115 120 117 108 124 133 130 141 156 158 144 129 126 116 99 88 81 83 85 88 89 85 80 76 73 69 67 62 66 79 329 339 5 42 66 62 58 55 58 64 70 76 76 80 85
157 161 158 154 151 146 142 139 141 147 151 154 157 162 165 165 163 158 157 155 153 148 143 138 134 131 123 117 115 115 116 120 127 130 131 130 131 129 127 123 119 129 127 124 130 131 133 140 155 160 152 140 139 134 112 93 84 86 88 89 91 88 83 79 77 72 69 64 72 86 318 344 15 42 64 69 65 56 55 60 72 80 82 82 80
151 157 158 156 151 145 142 140 143 145 147 149 155 161 163 162 160 157 156 156 154 149 145 139 135 130 122 118 116 115 115 118 121 126 132 134 135 130 130 131 134 143 140 147 149 147 146 148 162 163 157 153 151 145 128 104 92 91 92 93 93 91 86 80 79 76 73 68 73 112 333 10 18 34 61 69 66 57 53 57 69 76 76 77 77
147 156 160 157 151 146 142 141 142 141 143 147 153 157 158 158 156 155 156 155 154 150 145 139 135 129 125 123 121 122 125 125 124 127 133 137 137 131 131 132 135 141 144 152 154 155 156 160 176 170 162 163 158 151 142 118 102 97 97 96 93 90 87 85 83 77 71 64 68 187 282 340 352 32 63 66 67 64 58 56 64 71 71 72 73
146 160 162 157 151 146 143 142 141 140 142 146 149 151 153 154 152 153 154 154 152 149 144 139 135 131 130 129 131 135 133 130 133 136 139 141 137 134 132 129 130 133 137 139 132 144 157 166 180 175 167 167 163 159 152 132 114 105 103 97 94 91 89 88 86 78 73 69 81 167 254 325 352 63 68 66 72 72 65 58 61 68 70 69 70
146 157 157 155 149 145 146 145 143 142 143 145 146 147 149 149 150 152 153 153 150 147 144 140 137 135 136 139 142 142 138 135 142 146 147 145 139 138 137 133 128 124 126 121 114 120 144 168 182 177 169 169 167 165 159 146 128 112 105 101 100 96 92 88 86 84 87 104 151 231 316 341 44 80 76 75 76 73 67 62 62 65 67 67 68
152 149 152 154 147 146 148 146 146 144 144 144 144 145 146 147 150 153 153 152 149 147 145 143 141 141 143 145 146 142 142 143 147 155 151 148 144 140 138 138 131 124 120 112 112 110 120 151 174 175 171 173 170 167 165 156 139 119 109 108 107 101 96 90 86 83 91 133 238 262 321 346 59 85 82 80 78 76 71 67 65 64 64 64 65
152 143 153 154 147 149 149 148 149 146 146 144 144 144 146 150 155 156 155 153 150 149 148 147 145 145 146 146 145 140 143 146 149 159 152 148 153 147 138 138 134 131 124 116 119 119 127 133 162 176 177 178 174 173 171 166 151 131 118 111 109 103 98 93 86 81 98 180 250 286 354 2 51 85 86 85 84 83 77 73 70 66 65 65 66
148 142 154 155 150 152 151 152 152 149 148 146 147 148 152 155 158 159 156 154 152 152 151 149 147 148 147 145 141 137 143 150 154 157 147 146 158 157 142 136 132 130 131 127 129 142 162 152 213 193 188 186 182 182 178 173 162 143 128 116 110 105 99 98 94 91 118 239 274 293 327 352 41 85 87 88 88 87 82 78 76 72 69 68 68
148 144 154 156 153 153 153 154 154 152 151 151 153 154 157 158 160 160 157 157 156 155 154 152 151 149 146 142 140 141 144 151 156 152 147 148 156 160 147 140 135 133 149 159 152 162 194 245 256 208 197 192 190 192 186 178 169 154 134 120 115 109 103 102 102 105 125 269 273 286 320 358 52 84 86 90 91 91 90 85 81 77 74 71 70
151 147 156 159 157 157 158 160 159 157 156 157 159 159 160 161 162 162 160 161 159 156 155 155 152 147 147 143 140 142 143 149 152 150 154 152 156 165 159 165 174 174 175 179 176 196 265 259 240 209 196 191 194 201 198 186 172 161 136 122 122 116 115 112 108 115 139 236 254 291 356 4 21 76 86 93 94 93 95 92 88 83 79 76 74
155 154 163 166 166 166 166 166 164 162 161 161 163 164 164 166 167 166 165 163 161 160 156 155 150 146 145 141 136 135 139 143 144 148 159 160 168 177 174 190 195 182 181 178 176 203 282 231 241 235 212 192 192 200 202 194 178 160 135 126 127 120 118 110 105 127 171 215 248 286 327 338 347 74 83 91 99 97 99 97 94 89 84 82 79
158 160 170 176 174 172 170 169 167 166 165 165 167 168 168 171 172 171 168 165 164 162 158 154 150 148 145 139 134 132 135 138 142 150 160 171 177 178 177 195 202 192 181 187 213 168 210 202 218 233 222 210 193 191 190 190 178 156 138 129 123 114 109 103 105 153 200 206 234 265 295 324 326 27 91 93 107 108 106 102 100 96 91 87 84
161 166 176 182 181 176 174 174 172 169 168 171 173 171 172 174 176 176 172 168 168 163 157 155 151 150 146 140 135 137 140 141 146 151 160 178 183 180 183 200 214 214 191 186 208 194 225 216 170 181 198 207 197 187 174 174 169 152 141 132 123 112 105 104 121 193 228 219 232 257 287 317 319 302 111 104 108 115 115 111 109 105 98 93 90
167 172 181 183 184 180 178 180 174 169 172 176 176 171 172 176 177 174 172 170 169 163 157 156 153 150 146 141 140 142 145 149 153 156 166 184 197 195 191 205 214 218 214 188 196 201 209 194 165 166 170 181 184 185 173 167 162 152 148 140 131 116 106 106 137 216 245 242 257 276 294 314 316 302 178 124 115 119 125 124 120 113 110 103 98
171 175 183 182 184 182 182 181 173 171 178 182 177 172 173 178 179 173 172 171 167 164 159 157 153 150 149 146 146 148 153 163 164 165 177 189 207 212 203 206 207 208 213 188 189 196 193 177 154 154 162 166 168 173 171 167 165 158 155 152 148 127 116 117 140 211 240 248 277 291 302 317 318 304 290 146 123 122 127 131 130 125 122 116 107
170 175 179 183 186 183 183 180 175 178 185 186 178 174 175 179 183 179 175 170 166 164 158 156 156 157 154 149 151 153 160 170 174 178 184 195 207 219 227 224 214 203 201 189 187 186 184 173 147 150 157 157 161 157 149 161 168 164 160 158 161 136 122 129 162 212 238 253 284 309 317 322 324 315 295 278 154 128 132 134 138 136 132 128 118
168 175 177 184 186 185 184 180 181 187 190 189 181 176 178 180 182 180 176 168 163 161 159 161 163 162 156 154 160 160 166 173 182 191 190 197 204 217 236 236 221 199 191 184 172 178 176 159 142 139 132 138 146 133 130 169 166 164 165 155 146 127 123 146 194 222 242 263 299 333 338 329 330 333 320 278 229 145 145 142 138 143 141 138 127
162 169 174 181 186 187 184 184 189 193 192 191 187 180 178 180 179 177 173 167 163 161 163 167 166 161 159 162 164 167 178 184 184 194 199 201 206 212 228 230 210 185 185 180 154 151 147 139 140 138 123 121 123 119 161 196 167 161 163 153 149 134 137 176 205 225 243 261 289 332 341 331 331 337 340 292 229 166 162 161 131 142 149 145 128
156 163 171 180 185 187 186 189 193 195 194 187 184 182 181 180 178 176 171 170 167 163 165 168 168 163 162 166 169 178 188 193 190 191 197 204 214 214 219 226 209 194 198 197 172 153 151 146 141 142 126 110 114 137 190 196 167 163 167 173 167 146 154 191 203 219 239 253 268 305 335 331 332 336 342 329 251 169 162 166 109 123 142 145 131
157 162 172 182 185 187 189 192 193 194 195 185 182 183 184 181 177 177 173 173 168 168 171 167 173 168 165 175 179 190 194 200 204 195 196 207 222 222 217 225 222 211 203 204 208 209 201 170 143 139 127 109 135 171 197 193 162 165 181 180 157 148 170 198 218 228 247 266 264 293 339 339 341 340 341 342 303 170 156 134 108 111 124 135 128
157 160 171 184 187 190 191 194 194 193 192 186 184 185 185 183 180 179 175 175 169 174 172 159 170 172 167 179 180 189 194 201 205 197 200 203 217 225 221 230 230 220 209 207 208 214 219 192 160 142 134 152 179 180 192 184 161 169 179 161 153 171 184 190 219 230 246 280 274 303 356 1 4 357 351 0 1 158 152 133 119 112 117 122 111
160 165 174 182 188 193 191 194 194 192 191 187 187 187 185 182 182 181 177 179 171 165 156 148 166 176 176 184 183 184 191 208 206 198 201 202 217 232 230 229 224 218 212 209 207 203 202 195 180 157 161 184 180 171 183 184 171 171 165 161 177 189 182 174 187 210 233 276 301 340 16 29 30 25 10 13 119 145 140 127 116 108 111 111 102
167 173 176 179 191 193 188 191 192 192 192 187 188 189 185 183 183 182 179 181 172 152 140 148 167 178 188 194 196 188 193 213 205 196 200 203 216 230 229 220 219 221 216 213 213 209 202 189 179 169 179 182 176 175 182 182 171 164 163 176 193 183 173 167 163 187 223 293 343 348 23 42 44 50 45 42 98 146 139 120 102 99 101 101 98
169 172 168 175 189 187 187 189 186 189 190 188 191 189 185 184 182 178 176 175 171 162 156 165 179 190 199 197 202 198 199 212 202 196 196 198 210 219 224 219 221 220 215 214 216 224 218 197 183 181 186 173 174 181 167 163 164 173 176 182 196 185 183 180 169 189 213 237 323 340 26 52 57 59 69 77 88 128 132 122 113 105 98 93 92
168 171 159 168 179 176 180 180 180 185 186 188 190 188 183 176 170 168 169 169 174 181 172 175 184 192 200 196 203 208 207 212 207 205 198 197 203 201 211 225 224 215 212 213 222 233 229 221 209 197 189 164 167 178 162 164 171 181 186 179 185 183 183 184 178 182 185 189 221 302 26 51 63 60 65 81 92 110 117 118 119 108 93 88 86
169 171 159 165 167 161 162 162 172 179 179 182 179 179 177 160 160 167 162 168 180 189 181 179 183 186 196 200 209 216 219 217 211 213 209 200 199 200 211 228 225 214 213 212 219 225 226 242 232 195 180 156 153 169 166 169 167 169 181 170 158 155 161 168 175 180 174 178 191 174 22 35 62 66 64 70 84 95 96 100 99 90 83 82 81
168 168 161 162 157 155 161 158 158 159 161 163 150 142 147 143 168 182 177 179 183 187 186 191 198 201 209 214 223 229 231 229 217 217 216 205 211 223 220 224 221 215 216 213 217 219 223 240 220 176 171 158 157 171 171 167 159 162 170 158 143 136 138 141 150 167 177 192 190 174 174 178 93 83 88 82 80 79 69 64 67 74 80 78 74
161 163 161 162 164 161 156 152 145 140 141 146 139 132 137 143 164 178 182 186 189 198 206 217 225 226 227 232 242 250 248 242 231 229 224 211 223 233 224 222 223 216 212 211 214 214 215 221 202 166 162 161 164 171 171 165 155 153 155 161 155 132 139 143 131 145 162 168 165 172 211 209 195 208 139 97 72 62 59 60 75 85 85 80 73
158 160 160 162 169 163 149 145 138 129 129 138 140 139 143 153 164 173 174 176 199 216 225 239 243 241 243 249 251 253 251 243 237 240 237 222 226 236 225 219 221 215 206 207 209 202 205 213 205 182 163 156 159 164 164 162 157 150 151 166 157 126 137 144 131 140 150 141 124 149 229 235 222 227 169 107 355 24 54 66 83 87 78 71 66
159 157 154 151 152 157 152 149 137 118 120 133 134 146 158 159 162 173 172 172 223 237 248 266 264 261 257 263 266 261 252 243 241 242 243 229 225 230 221 215 218 217 208 202 200 195 205 214 194 183 171 151 151 159 160 159 161 157 154 162 150 131 137 138 130 127 125 133 128 127 218 232 224 227 161 87 273 277 35 90 85 68 65 54 43
161 152 143 136 136 147 146 141 131 117 125 139 137 147 151 137 148 166 176 199 256 238 250 283 269 266 262 263 270 269 261 253 246 227 225 223 218 219 215 216 223 222 212 194 193 197 206 211 186 173 172 154 146 147 158 163 162 162 165 169 163 151 148 152 160 145 131 146 156 168 228 213 212 213 37 290 267 252 253 236 226 296 12 5 357
149 137 134 134 133 136 135 128 123 124 131 138 138 140 134 120 135 144 139 130 104 162 225 339 309 262 254 256 257 256 259 254 244 219 210 214 216 217 218 228 232 220 209 194 198 205 203 202 189 174 178 173 151 144 159 169 163 161 168 172 172 163 150 158 172 157 146 131 110 96 27 106 223 22 20 278 232 192 232 249 241 255 297 313 312
133 128 132 135 130 121 124 127 128 137 138 139 145 140 136 128 122 120 113 104 81 65 30 19 12 349 308 277 270 258 261 253 238 219 211 211 213 220 230 229 213 211 208 198 203 208 200 193 192 185 188 186 163 164 175 175 169 160 160 162 164 163 142 142 152 125 119 108 103 122 118 95 79 35 25 14 191 191 195 215 232 245 275 296 308
133 136 137 132 134 125 129 141 141 145 144 138 137 124 124 124 113 106 91 77 63 55 28 20 7 324 333 326 286 259 257 250 224 213 217 217 212 217 229 218 206 209 210 198 201 209 204 194 193 189 190 183 163 179 186 181 178 165 160 160 160 164 149 141 132 108 107 103 112 133 128 87 66 49 43 66 94 122 126 164 223 251 254 270 296
138 147 142 125 139 147 147 155 144 141 142 125 123 123 120 119 111 93 69 50 60 84 269 263 234 265 49 61 11 195 187 206 208 216 221 213 211 217 219 215 208 202 202 195 194 204 205 195 189 186 190 184 165 175 184 186 186 176 171 171 172 179 171 158 139 122 120 101 75 65 77 77 54 48 47 57 79 92 97 95 27 308 255 267 284
146 156 152 125 133 145 146 151 139 135 139 129 131 133 124 123 114 90 78 128 144 162 205 347 49 89 91 85 66 90 114 129 162 193 206 195 205 218 204 199 193 184 193 197 195 195 195 189 186 189 189 182 173 176 186 199 201 187 177 176 184 186 175 170 150 134 133 115 87 63 72 74 55 57 57 45 61 89 75 30 36 199 219 238 323
154 156 155 137 131 137 142 148 141 135 142 142 137 135 137 137 126 122 173 183 177 178 155 85 67 58 74 98 97 100 100 111 139 150 167 177 195 202 182 184 190 193 196 197 198 194 194 192 192 197 188 181 183 179 188 203 201 190 184 177 180 179 170 166 143 123 112 103 106 106 99 93 79 73 68 58 59 67 65 68 85 112 114 113 107
157 151 151 144 134 134 137 142 143 140 140 138 134 142 154 148 151 178 190 189 177 170 147 102 85 67 54 72 97 111 106 101 97 96 123 142 158 158 163 181 185 188 186 187 197 200 205 207 207 209 194 187 189 181 195 205 191 185 187 177 174 180 171 153 132 119 116 110 106 107 103 100 97 88 79 77 72 61 57 73 90 99 100 106 114
157 154 152 150 145 143 137 138 145 143 139 137 135 141 147 148 165 177 167 148 141 140 125 100 108 123 94 77 90 92 95 112 107 84 86 108 138 144 153 164 159 174 180 181 189 192 201 203 207 210 193 192 191 177 190 204 196 195 192 187 192 199 181 160 139 125 125 118 105 105 103 101 104 100 98 105 98 78 61 72 88 96 93 89 96
161 161 160 158 159 158 147 143 147 145 141 139 135 137 142 145 149 142 133 138 146 151 151 145 163 180 151 107 73 79 69 68 97 89 73 85 117 120 171 166 118 122 167 174 179 176 181 182 187 193 184 193 193 177 179 188 194 202 205 207 207 201 178 164 150 138 129 111 109 119 117 117 116 108 101 110 113 103 84 71 77 85 87 88 82
174 170 169 165 164 163 153 146 150 150 149 144 143 151 150 142 141 144 152 166 173 172 170 169 179 181 141 86 57 82 87 59 83 96 84 84 113 114 136 152 59 6 80 164 180 168 162 177 190 185 176 190 192 184 184 173 179 194 199 205 206 187 167 161 147 144 137 117 116 122 117 125 124 113 100 97 108 110 97 72 70 92 111 110 66
181 176 174 170 166 165 157 153 155 155 155 152 152 159 153 143 151 162 169 179 180 170 169 177 178 159 127 114 116 127 134 119 96 92 85 86 139 151 154 151 150 183 178 165 176 175 185 204 203 184 176 187 180 175 177 163 165 179 169 172 181 172 163 158 142 147 144 126 123 113 100 106 103 100 96 93 98 104 108 101 85 89 119 90 64
185 183 181 177 172 171 166 162 162 160 160 157 155 160 156 150 158 167 172 170 157 153 168 180 171 156 147 154 158 147 145 141 123 116 120 134 148 149 159 159 158 162 167 176 183 179 182 188 182 173 182 186 171 172 171 162 162 159 151 157 161 161 164 165 157 155 148 133 128 119 110 107 102 100 97 95 94 96 113 122 108 88 298 81 77
189 189 190 185 180 177 171 166 165 164 163 163 162 163 160 158 163 166 164 157 150 158 174 166 149 149 149 156 150 135 154 162 156 154 156 176 156 117 110 158 164 163 165 174 174 163 160 159 160 167 174 171 168 170 161 159 158 134 126 137 139 145 154 156 152 149 145 134 126 128 126 112 106 110 111 112 103 94 100 113 122 241 299 48 79